Temp
68 68 68 68 70 70 69 67 62 55 58 61 55 63 66 69 62 61 59 51 50 49 48 49 50 51 52 52 52 53 53 53 54 54 54 55 55 56
69 68 68 69 69 69 69 64 62 60 53 62 59 63 63 66 59 60 62 50 49 47 47 47 48 49 49 49 50 50 50 50 51 51 52 52 53 53
70 69 68 70 68 68 65 65 62 57 53 59 52 53 59 57 57 57 60 60 58 48 47 46 45 45 46 46 46 46 47 47 48 48 49 49 50 50
69 69 68 69 67 67 64 59 58 56 53 51 49 49 49 51 53 54 57 59 59 52 48 46 45 44 44 44 44 44 44 44 44 44 45 46 46 46
71 70 70 69 66 60 58 55 55 52 52 51 49 47 48 52 49 49 50 50 56 51 45 44 44 44 44 44 43 43 43 43 43 43 42 43 43 43
70 70 70 69 64 59 56 55 55 51 51 49 49 43 44 44 44 43 43 47 50 58 54 50 47 45 44 43 43 43 43 43 43 43 42 41 40 41
68 70 66 61 53 55 58 56 53 50 49 47 45 39 40 39 40 41 40 43 48 53 53 53 53 51 51 44 44 44 43 43 42 43 42 41 40 40
66 66 61 52 52 46 45 47 51 50 46 44 43 41 40 39 39 38 38 38 39 50 50 50 52 49 50 52 47 44 43 42 42 41 41 41 40 39
65 62 61 58 49 53 40 37 37 37 38 44 41 38 36 37 38 36 37 39 40 46 48 44 49 46 50 52 44 43 42 41 41 41 40 39 38 38
65 64 61 54 47 41 37 35 33 34 34 37 36 34 35 37 36 38 40 42 43 46 47 38 45 44 48 48 44 43 42 41 41 40 39 39 38 38
41 42 42 39 39 39 35 32 31 30 33 34 33 32 32 32 33 39 35 37 36 40 45 42 42 40 43 42 43 43 41 41 40 40 39 38 38 37
34 35 35 35 35 36 35 34 29 28 28 28 29 33 35 33 33 36 40 35 35 34 42 37 39 39 35 42 42 43 42 41 41 40 39 39 38 38
32 32 32 34 34 34 34 32 30 30 29 30 33 34 35 36 35 36 38 36 33 33 39 37 35 35 33 34 38 40 40 40 41 43 40 38 37 37
30 31 31 32 32 32 31 30 30 30 30 31 32 33 34 33 36 38 37 36 37 35 37 35 31 31 30 30 30 36 38 38 39 41 41 41 37 37
30 30 30 30 30 29 29 29 30 31 32 30 30 33 34 34 34 33 34 35 35 35 36 35 32 31 31 29 29 31 32 36 38 38 40 39 37 39
29 29 28 28 28 28 28 29 29 29 31 30 29 30 31 30 29 32 30 30 28 30 35 35 33 32 29 30 31 30 33 32 37 38 38 37 39 39
29 29 29 29 28 28 28 28 28 28 28 27 26 26 26 26 27 29 28 27 24 25 27 31 33 33 32 31 28 31 32 33 36 36 37 34 36 37
31 30 28 29 28 28 27 26 26 26 26 25 25 25 24 24 24 25 26 24 23 25 26 29 30 30 31 33 34 31 33 34 35 35 36 33 34 37
29 28 28 28 27 26 26 26 25 25 25 25 24 23 23 23 22 22 23 23 23 24 26 28 28 26 23 21 32 36 30 30 29 30 30 33 34 37
28 26 25 26 25 25 25 25 25 25 24 23 22 22 21 21 20 20 21 21 22 22 23 26 26 26 24 21 21 27 31 28 28 28 29 34 35 32
26 25 25 24 25 25 24 23 23 22 21 21 21 21 20 20 19 19 19 19 18 20 19 21 26 27 28 28 22 24 30 34 33 29 29 27 32 33
24 23 23 23 22 22 22 22 21 21 20 20 19 19 18 18 17 16 17 16 17 18 19 23 25 26 25 23 22 23 27 31 33 33 32 30 31 29
21 22 22 21 21 20 20 19 18 18 17 17 17 16 16 15 16 16 16 16 16 17 17 18 20 22 21 22 21 22 23 25 28 28 30 30 31 30
MSLP
1016.73 1017.26 1017.54 1017.80 1017.76 1017.81 1017.80 1018.28 1018.51 1018.62 1018.32 1018.53 1018.76 1018.48 1018.52 1018.76 1019.21 1020.01 1020.63 1020.98 1021.46 1021.92 1022.12 1022.59 1022.86 1022.93 1023.06 1023.28 1023.29 1023.32 1023.40 1023.48 1023.56 1023.48 1023.35 1023.24 1023.04 1022.76
1016.05 1016.28 1016.60 1016.75 1016.81 1016.99 1016.99 1017.54 1018.04 1017.86 1017.37 1017.96 1017.75 1017.34 1017.53 1018.22 1018.76 1019.39 1019.52 1020.18 1020.73 1021.04 1021.54 1021.80 1022.11 1022.34 1022.65 1022.78 1022.89 1022.96 1023.03 1023.00 1023.05 1023.04 1022.94 1022.78 1022.57 1022.31
1014.80 1014.92 1015.22 1015.46 1015.45 1015.79 1016.33 1016.68 1017.12 1017.68 1017.46 1017.15 1017.08 1017.22 1017.47 1018.18 1018.74 1018.99 1019.16 1019.42 1019.61 1020.05 1020.53 1020.85 1021.33 1021.83 1022.19 1022.36 1022.43 1022.47 1022.55 1022.52 1022.55 1022.57 1022.57 1022.45 1022.23 1021.98
1013.35 1013.78 1013.87 1014.14 1014.26 1014.71 1015.46 1015.97 1016.41 1016.69 1016.67 1016.86 1017.09 1016.93 1017.16 1017.38 1017.83 1018.38 1018.63 1018.72 1018.73 1018.95 1019.78 1020.39 1020.78 1021.08 1021.43 1021.60 1021.65 1021.70 1021.82 1021.94 1022.09 1022.08 1022.02 1021.86 1021.77 1021.66
1011.96 1012.06 1012.22 1012.59 1013.14 1013.87 1014.41 1014.85 1015.27 1015.82 1016.13 1016.02 1016.48 1017.00 1017.43 1017.73 1017.44 1018.08 1018.29 1018.80 1018.28 1018.84 1019.45 1020.05 1020.31 1020.47 1020.68 1020.83 1020.98 1021.11 1021.14 1021.23 1021.32 1021.26 1021.27 1021.22 1021.19 1021.10
1010.83 1011.09 1011.24 1011.46 1012.09 1012.88 1013.16 1013.81 1013.74 1014.23 1014.76 1015.25 1015.65 1016.26 1016.73 1017.34 1017.77 1017.74 1018.22 1018.00 1017.88 1017.74 1018.06 1018.72 1019.22 1019.84 1020.09 1020.22 1020.25 1020.29 1020.36 1020.40 1020.59 1020.63 1020.57 1020.56 1020.53 1020.39
1009.72 1009.87 1010.11 1010.79 1011.49 1011.87 1012.18 1012.59 1012.99 1013.10 1013.49 1013.95 1014.84 1015.80 1016.31 1016.64 1016.46 1016.61 1017.13 1017.37 1017.50 1017.36 1017.82 1018.18 1018.43 1018.59 1018.64 1019.24 1019.24 1019.18 1019.40 1019.70 1019.94 1019.96 1019.89 1019.80 1019.69 1019.46
1008.51 1009.02 1009.61 1010.18 1010.35 1010.76 1011.23 1011.36 1011.15 1011.81 1012.33 1013.10 1013.64 1014.18 1015.03 1015.90 1016.05 1016.77 1017.28 1017.36 1017.48 1017.19 1017.43 1017.77 1018.15 1018.09 1018.20 1018.17 1018.12 1018.37 1018.71 1018.97 1019.14 1019.23 1019.18 1018.99 1018.81 1018.58
1007.60 1008.03 1008.33 1008.68 1009.51 1010.10 1010.63 1010.98 1011.50 1011.92 1012.49 1012.90 1013.70 1014.57 1015.08 1015.08 1016.27 1017.33 1017.64 1017.69 1017.41 1017.17 1017.27 1017.52 1018.01 1017.73 1017.66 1017.45 1017.73 1018.08 1018.28 1018.39 1018.53 1018.58 1018.45 1018.29 1018.09 1017.76
1007.04 1007.24 1007.48 1008.13 1008.86 1009.61 1010.40 1011.71 1012.36 1012.98 1013.08 1013.34 1014.02 1015.15 1015.70 1015.97 1016.66 1017.28 1017.70 1017.77 1017.71 1017.64 1018.07 1017.80 1017.88 1017.45 1017.11 1017.36 1017.53 1017.68 1017.67 1017.74 1017.84 1017.82 1017.71 1017.58 1017.33 1017.01
1008.09 1008.05 1008.12 1008.76 1009.35 1009.99 1011.02 1012.32 1013.14 1013.96 1014.85 1015.36 1015.56 1015.20 1016.31 1016.32 1017.83 1017.49 1018.04 1018.23 1017.99 1018.01 1017.84 1017.76 1017.58 1017.39 1017.14 1017.11 1017.22 1017.17 1017.31 1017.33 1017.26 1017.05 1016.99 1016.96 1016.73 1016.53
1009.47 1009.71 1009.82 1010.07 1010.79 1011.28 1011.73 1012.35 1013.42 1014.77 1015.39 1016.23 1016.80 1016.89 1017.44 1017.90 1018.02 1017.75 1017.41 1017.84 1018.34 1018.21 1018.00 1018.41 1018.07 1017.94 1017.22 1016.66 1016.61 1016.69 1016.87 1016.70 1016.43 1016.36 1016.30 1016.22 1016.08 1015.93
1010.29 1011.08 1011.53 1011.65 1011.96 1012.23 1012.52 1013.21 1014.46 1015.58 1015.32 1016.27 1016.28 1017.27 1017.84 1018.16 1018.02 1018.29 1018.14 1018.28 1018.33 1018.35 1018.59 1018.90 1018.55 1018.33 1018.27 1017.24 1016.83 1016.67 1016.59 1016.37 1015.87 1015.35 1015.29 1015.42 1015.51 1015.44
1011.27 1011.89 1012.45 1012.66 1013.08 1013.59 1014.20 1014.72 1015.33 1016.04 1016.97 1016.99 1016.85 1017.27 1017.98 1018.41 1018.13 1018.03 1018.51 1018.68 1018.70 1018.96 1018.96 1019.09 1018.93 1018.79 1018.30 1017.48 1016.76 1016.45 1016.11 1015.92 1015.62 1014.98 1014.53 1014.38 1014.87 1014.80
1012.29 1013.20 1013.46 1013.79 1014.23 1014.88 1015.49 1016.61 1016.45 1016.26 1016.99 1017.58 1017.78 1017.97 1018.15 1018.57 1018.60 1018.85 1018.97 1018.98 1018.96 1018.86 1018.75 1018.73 1018.71 1018.52 1018.26 1017.47 1016.65 1016.22 1015.74 1015.25 1014.86 1014.33 1013.84 1013.74 1013.98 1013.95
1013.62 1014.23 1014.63 1014.99 1015.31 1016.14 1016.46 1016.87 1017.39 1017.73 1017.72 1018.07 1018.16 1018.78 1018.92 1018.91 1018.80 1018.95 1019.09 1019.06 1018.99 1018.65 1018.33 1018.12 1018.09 1017.97 1017.52 1017.14 1016.54 1015.58 1015.40 1014.71 1014.12 1013.71 1013.26 1013.12 1012.89 1013.08
1014.39 1014.79 1015.09 1015.57 1016.04 1016.47 1017.00 1017.56 1017.99 1018.53 1018.59 1018.93 1019.06 1019.05 1019.07 1019.20 1019.27 1019.31 1019.35 1019.25 1019.02 1018.64 1018.18 1017.83 1017.44 1017.17 1016.84 1016.52 1015.80 1015.25 1014.67 1014.10 1013.60 1012.99 1012.69 1012.27 1012.09 1012.26
1014.57 1015.03 1015.45 1015.89 1016.39 1017.04 1017.59 1018.13 1018.55 1018.85 1019.40 1019.66 1019.56 1019.56 1019.58 1019.64 1019.65 1019.67 1019.62 1019.46 1019.11 1018.48 1017.82 1017.29 1016.80 1016.33 1015.76 1015.01 1014.78 1014.07 1013.79 1013.26 1012.78 1012.43 1011.82 1011.58 1011.15 1011.45
1015.56 1016.16 1016.60 1016.91 1017.40 1017.88 1018.35 1018.79 1019.13 1019.59 1020.03 1019.78 1019.86 1019.97 1020.05 1020.08 1020.03 1019.84 1019.66 1019.30 1018.79 1018.21 1017.56 1017.07 1016.67 1016.17 1015.38 1014.35 1013.75 1013.36 1013.38 1013.42 1013.26 1012.51 1011.89 1010.38 1010.50 1010.61
1016.90 1017.43 1017.86 1018.20 1018.68 1018.98 1019.16 1019.45 1019.74 1020.19 1020.34 1020.36 1020.41 1020.40 1020.35 1020.34 1020.26 1020.18 1019.89 1019.43 1018.77 1018.26 1017.77 1017.16 1016.62 1015.99 1015.31 1014.90 1014.20 1014.20 1014.00 1013.51 1013.05 1012.42 1011.22 1010.23 1010.26 1010.70
1018.02 1018.55 1019.01 1019.30 1019.53 1019.80 1020.25 1020.45 1020.73 1020.88 1021.04 1020.85 1020.83 1020.76 1020.79 1020.70 1020.48 1020.16 1019.98 1019.70 1019.40 1018.72 1017.84 1017.02 1016.36 1016.08 1015.58 1014.91 1014.04 1013.27 1012.65 1012.09 1012.10 1011.99 1011.38 1011.06 1009.66 1010.12
1018.86 1019.43 1019.82 1020.41 1020.90 1021.03 1021.13 1021.28 1021.34 1021.24 1021.29 1021.37 1021.35 1021.41 1021.34 1021.22 1020.91 1020.64 1020.27 1019.87 1019.37 1018.90 1018.12 1017.42 1016.87 1016.29 1015.60 1014.77 1013.57 1012.63 1012.14 1011.24 1011.18 1010.88 1010.65 1010.43 1009.83 1009.33
1020.46 1020.48 1020.73 1021.15 1021.47 1021.57 1021.77 1022.12 1022.22 1022.23 1022.24 1022.12 1022.01 1021.77 1021.72 1021.60 1021.29 1020.79 1020.38 1020.00 1019.65 1019.11 1018.50 1017.77 1016.93 1016.33 1015.52 1014.89 1014.12 1013.18 1012.00 1011.18 1010.55 1009.81 1009.19 1009.09 1009.77 1009.32
Wind_Speed
11 12 11 10 10 10 9 10 10 9 10 10 7 12 11 9 8 8 10 14 15 12 11 10 11 10 10 10 11 12 13 15 16 18 19 22 23 25
11 15 15 12 13 11 11 9 10 11 9 8 10 10 10 9 9 11 11 17 15 13 12 11 10 8 9 10 11 11 13 14 16 18 20 21 24 26
17 17 18 17 12 11 10 10 10 10 12 12 3 2 9 10 9 7 10 12 11 17 15 13 9 8 8 9 10 11 13 14 15 17 19 20 22 24
19 19 20 15 17 13 10 11 12 11 9 12 5 4 8 9 9 10 9 9 9 13 14 11 10 9 10 11 11 11 11 11 13 16 17 19 20 23
20 20 20 17 17 11 11 10 11 9 10 9 7 2 4 6 5 4 6 4 5 8 12 12 12 12 11 11 11 12 11 12 13 14 15 16 19 22
21 20 20 19 18 16 13 15 13 12 12 10 9 5 5 5 4 6 6 6 6 10 9 7 7 12 13 13 14 14 13 14 14 14 13 16 17 20
20 20 16 15 17 18 12 15 14 12 11 10 8 4 6 5 13 5 5 4 6 4 5 7 6 7 8 15 15 15 15 10 10 13 16 17 18 20
18 17 15 16 19 18 19 20 18 15 15 11 10 12 11 6 4 3 3 3 4 4 8 6 6 6 6 7 9 5 7 9 11 14 16 17 18 19
17 16 16 12 13 14 7 11 11 13 7 6 6 1 4 5 5 3 1 1 3 2 4 6 6 7 7 8 2 3 6 9 13 15 15 15 17 18
19 19 15 11 8 10 10 10 10 10 8 7 11 8 9 8 6 3 2 3 3 4 5 6 6 7 6 6 8 10 11 12 12 15 14 14 16 18
5 5 4 6 11 18 13 13 11 11 15 20 18 19 15 14 5 3 2 3 4 6 5 7 5 6 6 6 9 15 6 9 16 17 16 14 14 15
8 9 13 12 14 11 11 11 13 8 9 8 8 8 8 7 5 1 2 3 4 4 1 3 5 5 6 4 5 4 6 10 12 13 14 15 11 8
8 8 8 18 20 20 17 10 11 9 10 8 7 5 3 4 4 2 2 3 4 6 0 3 5 6 7 9 7 7 7 8 9 8 15 12 10 10
10 9 11 23 23 23 17 21 18 10 6 4 4 4 3 2 2 1 2 4 5 8 8 6 5 7 9 10 11 7 7 7 9 10 8 7 14 13
11 18 25 25 24 19 20 14 8 6 5 4 3 2 3 3 4 3 5 7 9 9 9 10 8 10 9 10 11 10 11 8 9 10 10 8 7 7
13 10 13 14 15 11 9 8 6 5 3 4 3 2 3 3 3 3 5 6 7 8 9 9 10 10 9 10 11 11 9 10 9 10 9 9 7 6
9 7 6 7 7 6 6 6 5 4 4 4 3 3 3 4 4 4 5 7 8 8 8 7 9 11 10 13 11 11 11 11 11 11 12 9 8 7
7 7 6 6 6 5 5 5 5 4 5 4 4 4 5 5 6 6 7 7 9 9 9 9 8 9 9 11 17 12 11 11 9 11 12 11 7 7
8 7 6 7 7 6 6 6 6 6 4 3 3 4 5 6 7 7 8 8 9 9 9 9 9 9 10 11 9 9 8 8 11 12 12 7 7 6
9 8 8 7 7 6 5 5 4 4 4 5 5 6 6 6 7 8 9 9 9 10 10 10 10 10 9 9 11 10 18 11 10 11 10 9 2 8
8 8 7 7 7 7 6 5 5 4 4 4 5 6 6 8 8 9 9 11 11 11 11 11 10 15 10 10 11 11 10 13 13 12 10 11 7 7
8 7 7 7 6 6 6 6 6 6 6 7 7 7 8 8 9 10 9 10 10 10 11 10 12 11 10 11 12 13 11 9 12 19 17 18 5 5
7 7 6 5 5 6 6 7 7 7 7 7 7 7 7 8 9 9 9 9 10 10 11 11 10 11 11 12 13 12 17 13 11 10 11 12 7 14
Wind_Direction
222 236 241 243 243 237 233 232 234 245 233 219 205 215 220 224 191 190 207 187 190 193 199 211 221 227 238 248 259 271 278 282 286 288 288 289 289 289
224 225 234 237 240 243 238 220 228 238 249 221 221 220 196 215 192 190 207 165 184 185 202 208 218 232 247 257 264 271 277 282 286 287 288 290 291 292
229 233 237 240 241 239 226 228 219 224 254 262 210 144 195 207 179 194 199 206 197 197 200 197 201 224 248 259 266 271 277 280 284 287 291 294 295 295
233 236 241 239 238 231 225 234 235 239 232 252 206 189 197 189 190 200 210 220 222 194 188 184 196 216 241 253 258 262 267 279 284 289 293 294 297 299
237 237 241 239 233 222 223 212 217 214 223 218 218 202 174 217 166 202 193 240 239 157 160 191 211 227 239 248 250 256 261 268 271 279 285 290 297 296
240 244 246 242 230 218 215 225 228 217 210 217 211 179 176 183 193 184 212 211 221 227 211 230 188 216 221 231 241 245 246 253 266 276 284 289 289 290
244 246 244 233 224 227 229 233 223 214 217 208 201 162 181 181 195 174 179 192 225 210 250 256 230 214 231 233 250 237 240 244 249 275 288 290 290 290
241 244 231 231 232 230 229 233 216 212 206 198 196 202 194 179 136 144 171 159 205 215 225 242 251 259 274 265 254 223 245 262 273 274 283 289 293 294
238 234 234 226 222 228 200 98 72 64 59 204 198 158 145 129 112 117 110 257 247 259 203 254 271 267 272 272 228 245 262 259 267 274 279 284 294 293
246 250 244 224 197 146 123 98 85 65 71 87 107 88 73 69 99 121 200 269 309 294 285 260 257 267 292 305 308 295 279 270 264 266 270 279 294 297
26 22 99 101 124 134 119 112 93 83 66 75 85 86 76 80 67 150 177 221 256 261 252 253 263 278 278 293 273 264 298 270 260 260 261 270 285 301
58 53 62 95 101 113 119 124 103 101 89 84 74 84 99 75 58 22 212 214 248 282 264 280 283 322 285 280 289 312 300 281 304 263 250 256 278 270
86 76 73 89 93 91 87 88 95 112 110 109 116 97 132 145 141 168 252 250 255 253 267 319 282 295 288 287 271 282 302 286 280 276 234 235 249 247
97 94 90 87 85 84 82 94 99 97 80 76 102 123 132 177 201 210 294 291 281 270 290 302 270 280 285 282 283 281 284 287 288 287 278 262 218 234
93 95 91 88 83 80 85 75 86 91 105 114 117 148 54 9 348 307 274 270 267 268 267 267 264 267 267 273 281 282 287 280 272 271 271 248 212 219
89 78 80 84 86 95 90 81 65 51 66 58 58 27 353 327 292 295 299 296 290 283 276 272 270 266 267 268 274 280 276 274 287 285 276 267 231 223
104 101 98 95 96 98 86 82 84 73 69 60 33 7 353 331 304 304 301 300 291 290 287 282 267 257 259 269 271 272 277 273 269 270 268 264 223 209
86 84 85 83 78 80 94 96 90 74 61 30 4 353 342 332 320 316 302 288 281 284 288 287 285 283 276 260 246 261 261 276 295 305 279 255 221 203
71 71 67 65 68 67 66 53 55 60 16 17 358 338 330 321 315 308 302 294 288 288 290 295 296 293 290 283 286 285 326 329 315 301 307 217 217 217
59 62 61 62 61 62 65 52 40 25 20 5 343 333 326 313 307 302 301 303 306 309 307 301 289 275 292 310 309 306 300 293 281 283 288 286 153 101
68 62 55 50 47 48 40 31 13 2 345 318 328 327 333 319 311 311 307 306 305 290 287 291 302 321 298 290 281 278 270 270 276 276 294 299 199 184
54 61 54 45 33 22 11 0 346 344 342 335 333 326 323 320 313 310 306 305 303 302 300 304 306 304 297 288 287 291 287 298 299 288 272 255 295 194
39 28 40 34 17 10 359 354 346 339 336 333 326 326 329 317 308 301 300 304 304 306 304 301 301 301 299 301 298 294 293 295 294 297 295 180 171 107